| time (UTC) | temp C | wind direction | speed KPH | gust KPH | rain 1hr cm | rain 24hr cm | rain mn cm | humidity % | barometer mb |
| 20260831214548 | 11 | 171 | 0.0 | 0.0 | 0.00 | 0.00 | 0.15 | 93 | 1003.3 |
| 20260831213044 | 11 | 171 | 0.0 | 0.0 | 0.00 | 0.00 | 0.15 | 93 | 1003.3 |
| 20260831211601 | 11 | 171 | 0.0 | 0.0 | 0.00 | 0.00 | 0.15 | 92 | 1003.2 |
| 20260831210041 | 11 | 171 | 0.0 | 0.0 | 0.00 | 0.00 | 0.15 | 92 | 1003.4 |
| 20260831204540 | 11 | 171 | 0.0 | 0.0 | 0.00 | 0.00 | 0.15 | 92 | 1003.3 |
| 20260831203044 | 11 | 171 | 0.0 | 0.0 | 0.00 | 0.00 | 0.15 | 91 | 1003.5 |
| 20260831201536 | 12 | 171 | 0.0 | 0.0 | 0.00 | 0.00 | 0.15 | 91 | 1003.6 |
| 20260831200035 | 12 | 171 | 0.0 | 0.0 | 0.00 | 0.00 | 0.15 | 91 | 1003.4 |
| 20260831194551 | 12 | 171 | 0.0 | 0.0 | 0.00 | 0.00 | 0.15 | 90 | 1003.5 |
| 20260831193047 | 12 | 171 | 0.0 | 0.0 | 0.00 | 0.00 | 0.15 | 90 | 1003.6 |
| 20260831191545 | 12 | 171 | 0.0 | 0.0 | 0.00 | 0.00 | 0.15 | 89 | 1003.6 |
| 20260831190033 | 13 | 171 | 0.0 | 0.0 | 0.00 | 0.00 | 0.15 | 89 | 1003.4 |
| 20260831184533 | 13 | 171 | 0.0 | 0.0 | 0.00 | 0.00 | 0.15 | 88 | 1003.5 |
| 20260831183033 | 13 | 172 | 0.0 | 0.0 | 0.00 | 0.00 | 0.15 | 88 | 1003.6 |
| 20260831181532 | 13 | 173 | 0.0 | 0.0 | 0.00 | 0.00 | 0.15 | 86 | 1003.5 |
| 20260831180036 | 14 | 173 | 0.0 | 0.0 | 0.00 | 0.00 | 0.15 | 85 | 1003.5 |
| 20260831174532 | 14 | 173 | 0.0 | 0.0 | 0.00 | 0.00 | 0.15 | 85 | 1003.6 |
| 20260831173039 | 15 | 175 | 0.0 | 0.0 | 0.00 | 0.00 | 0.15 | 85 | 1003.6 |
| 20260831171530 | 15 | 175 | 0.0 | 0.0 | 0.00 | 0.00 | 0.15 | 84 | 1003.4 |
| 20260831170031 | 15 | 175 | 0.0 | 0.0 | 0.00 | 0.00 | 0.15 | 83 | 1003.6 |
| 20260831164531 | 15 | 174 | 0.0 | 0.0 | 0.00 | 0.00 | 0.15 | 83 | 1003.5 |
| 20260831163033 | 15 | 175 | 0.0 | 0.0 | 0.00 | 0.00 | 0.15 | 81 | 1003.5 |
| 20260831161532 | 15 | 175 | 0.0 | 0.0 | 0.00 | 0.00 | 0.15 | 79 | 1003.4 |
| 20260831160033 | 16 | 179 | 0.0 | 0.0 | 0.00 | 0.00 | 0.15 | 80 | 1003.5 |
| 20260831154557 | 16 | 180 | 0.0 | 0.0 | 0.00 | 0.00 | 0.15 | 81 | 1003.6 |
| 20260831153028 | 15 | 184 | 0.0 | 0.0 | 0.00 | 0.00 | 0.15 | 83 | 1003.7 |
| 20260831151532 | 15 | 184 | 0.0 | 0.0 | 0.00 | 0.00 | 0.15 | 84 | 1003.5 |
| 20260831150027 | 15 | 184 | 1.6 | 0.0 | 0.00 | 0.00 | 0.15 | 83 | 1003.6 |
| 20260831144528 | 15 | 196 | 1.6 | 0.0 | 0.00 | 0.00 | 0.15 | 83 | 1003.7 |
| 20260831143026 | 15 | 201 | 1.6 | 0.0 | 0.00 | 0.00 | 0.15 | 83 | 1003.7 |
| 20260831141525 | 15 | 204 | 1.6 | 0.0 | 0.00 | 0.00 | 0.15 | 83 | 1003.7 |
| 20260831140024 | 15 | 209 | 1.6 | 0.0 | 0.00 | 0.00 | 0.15 | 82 | 1003.7 |
| 20260831134524 | 16 | 234 | 3.2 | 0.0 | 0.00 | 0.00 | 0.15 | 78 | 1003.7 |
| 20260831133024 | 17 | 194 | 3.2 | 0.0 | 0.00 | 0.00 | 0.15 | 77 | 1003.7 |
| 20260831131525 | 16 | 190 | 3.2 | 0.0 | 0.00 | 0.00 | 0.15 | 81 | 1003.9 |
| 20260831130019 | 16 | 190 | 3.2 | 0.0 | 0.00 | 0.00 | 0.15 | 78 | 1003.7 |
| 20260831124534 | 16 | 186 | 1.6 | 0.0 | 0.00 | 0.00 | 0.15 | 80 | 1003.7 |
| 20260831123017 | 16 | 212 | 1.6 | 0.0 | 0.00 | 0.00 | 0.15 | 79 | 1003.7 |
| 20260831121515 | 16 | 205 | 3.2 | 0.0 | 0.00 | 0.00 | 0.15 | 80 | 1003.7 |
| 20260831120017 | 16 | 211 | 1.6 | 0.0 | 0.00 | 0.00 | 0.15 | 82 | 1003.6 |
| 20260831114512 | 16 | 219 | 1.6 | 0.0 | 0.00 | 0.00 | 0.15 | 82 | 1003.7 |
| 20260831113011 | 15 | 244 | 3.2 | 0.0 | 0.00 | 0.00 | 0.15 | 82 | 1003.8 |
| 20260831111510 | 16 | 233 | 3.2 | 0.0 | 0.00 | 0.00 | 0.15 | 81 | 1003.5 |
| 20260831110018 | 16 | 190 | 4.8 | 0.0 | 0.00 | 0.00 | 0.15 | 81 | 1003.5 |
| 20260831104501 | 15 | 178 | 1.6 | 0.0 | 0.00 | 0.00 | 0.15 | 87 | 1003.5 |
| 20260831103102 | 14 | 271 | 0.0 | 0.0 | 0.00 | 0.00 | 0.15 | 88 | 1003.7 |
| 20260831101602 | 14 | 289 | 1.6 | 0.0 | 0.00 | 0.00 | 0.15 | 90 | 1003.6 |
| 20260831100106 | 14 | 190 | 1.6 | 0.0 | 0.00 | 0.00 | 0.15 | 92 | 1003.6 |
| 20260831094610 | 14 | 233 | 1.6 | 0.0 | 0.00 | 0.00 | 0.15 | 91 | 1003.5 |
| 20260831093054 | 14 | 184 | 4.8 | 0.0 | 0.00 | 0.00 | 0.15 | 92 | 1003.4 |
| 20260831091557 | 14 | 231 | 1.6 | 0.0 | 0.00 | 0.00 | 0.15 | 95 | 1003.4 |
| 20260831090048 | 13 | 221 | 1.6 | 0.0 | 0.00 | 0.00 | 0.15 | 95 | 1003.5 |
| 20260831084548 | 13 | 236 | 4.8 | 0.0 | 0.00 | 0.00 | 0.15 | 95 | 1003.4 |
| 20260831083044 | 13 | 219 | 3.2 | 0.0 | 0.00 | 0.00 | 0.15 | 95 | 1003.3 |
| 20260831081540 | 13 | 190 | 0.0 | 0.0 | 0.00 | 0.00 | 0.15 | 96 | 1003.3 |
| 20260831080040 | 12 | 215 | 0.0 | 0.0 | 0.00 | 0.00 | 0.15 | 96 | 1003.2 |
| 20260831074537 | 12 | 217 | 1.6 | 0.0 | 0.00 | 0.00 | 0.15 | 96 | 1003.2 |
| 20260831073035 | 12 | 219 | 3.2 | 0.0 | 0.00 | 0.00 | 0.15 | 96 | 1003.2 |
| 20260831071549 | 12 | 214 | 1.6 | 0.0 | 0.00 | 0.00 | 0.15 | 96 | 1003.1 |
| 20260831070035 | 12 | 198 | 1.6 | 0.0 | 0.00 | 0.00 | 0.15 | 96 | 1003.2 |
| 20260831064534 | 12 | 182 | 3.2 | 0.0 | 0.00 | 0.00 | 0.15 | 96 | 1003.0 |
| 20260831063037 | 12 | 204 | 1.6 | 0.0 | 0.00 | 0.00 | 0.15 | 97 | 1003.2 |
| 20260831061532 | 12 | 184 | 0.0 | 0.0 | 0.00 | 0.00 | 0.15 | 97 | 1003.0 |
| 20260831060030 | 12 | 184 | 0.0 | 0.0 | 0.00 | 0.00 | 0.15 | 97 | 1003.0 |
| 20260831054529 | 12 | 185 | 1.6 | 0.0 | 0.00 | 0.00 | 0.15 | 96 | 1003.1 |
| 20260831053044 | 12 | 185 | 0.0 | 0.0 | 0.00 | 0.00 | 0.15 | 96 | 1002.8 |
| 20260831051532 | 12 | 190 | 1.6 | 0.0 | 0.00 | 0.00 | 0.15 | 96 | 1002.8 |
| 20260831050026 | 12 | 197 | 0.0 | 0.0 | 0.00 | 0.00 | 0.15 | 97 | 1002.7 |
| 20260831044526 | 12 | 198 | 0.0 | 0.0 | 0.00 | 0.00 | 0.15 | 97 | 1002.6 |
| 20260831043024 | 12 | 198 | 0.0 | 0.0 | 0.00 | 0.00 | 0.15 | 97 | 1002.6 |
| 20260831041523 | 12 | 211 | 0.0 | 0.0 | 0.00 | 0.00 | 0.15 | 96 | 1002.5 |
| 20260831040023 | 12 | 225 | 0.0 | 0.0 | 0.00 | 0.00 | 0.15 | 96 | 1002.4 |
| 20260831034522 | 12 | 229 | 0.0 | 0.0 | 0.00 | 0.00 | 0.15 | 97 | 1002.5 |
| 20260831033031 | 12 | 240 | 0.0 | 0.0 | 0.00 | 0.00 | 0.15 | 96 | 1002.2 |
| 20260831031521 | 12 | 254 | 0.0 | 0.0 | 0.00 | 0.00 | 0.15 | 96 | 1002.2 |
| 20260831030019 | 12 | 261 | 1.6 | 0.0 | 0.00 | 0.00 | 0.15 | 97 | 1002.1 |
| 20260831024520 | 12 | 218 | 0.0 | 0.0 | 0.00 | 0.00 | 0.15 | 96 | 1002.1 |
| 20260831023030 | 12 | 232 | 0.0 | 0.0 | 0.00 | 0.00 | 0.10 | 96 | 1002.0 |
| 20260831021531 | 12 | 192 | 0.0 | 0.0 | 0.00 | 0.00 | 0.05 | 96 | 1001.8 |
| 20260831020025 | 12 | 191 | 0.0 | 0.0 | 0.00 | 0.00 | 0.05 | 96 | 1001.8 |
| 20260831014515 | 12 | 191 | 0.0 | 0.0 | 0.00 | 0.00 | 0.05 | 96 | 1001.7 |
| 20260831013014 | 12 | 191 | 0.0 | 0.0 | 0.00 | 0.00 | 0.05 | 96 | 1001.7 |
| 20260831011516 | 12 | 191 | 0.0 | 0.0 | 0.00 | 0.00 | 0.05 | 96 | 1001.7 |
| 20260831010013 | 12 | 191 | 0.0 | 0.0 | 0.00 | 0.00 | 0.05 | 96 | 1001.7 |
| 20260831004511 | 12 | 191 | 0.0 | 0.0 | 0.00 | 0.00 | 0.05 | 96 | 1001.8 |
| 20260831003010 | 12 | 191 | 0.0 | 0.0 | 0.00 | 0.00 | 0.05 | 96 | 1001.7 |
| 20260831001513 | 12 | 191 | 0.0 | 0.0 | 0.00 | 0.00 | 0.05 | 96 | 1001.6 |
| 20260831000009 | 12 | 192 | 0.0 | 0.0 | 0.00 | 0.00 | 0.05 | 96 | 1001.6 |
| 20260830234508 | 12 | 197 | 0.0 | 0.0 | 0.00 | 0.00 | 0.05 | 96 | 1001.6 |
| 20260830233007 | 12 | 201 | 0.0 | 0.0 | 0.00 | 0.00 | 0.05 | 96 | 1001.6 |
| 20260830231515 | 12 | 209 | 0.0 | 0.0 | 0.00 | 0.00 | 0.05 | 96 | 1001.3 |
| 20260830230006 | 12 | 214 | 1.6 | 0.0 | 0.00 | 0.00 | 0.03 | 96 | 1001.4 |
| 20260830224503 | 12 | 236 | 4.8 | 0.0 | 0.00 | 0.00 | 0.03 | 96 | 1001.3 |
| 20260830223100 | 12 | 231 | 3.2 | 0.0 | 0.00 | 0.00 | 0.03 | 96 | 1001.1 |
| 20260830221601 | 12 | 240 | 1.6 | 0.0 | 0.00 | 0.00 | 0.00 | 95 | 1001.0 |
| 20260830220107 | 12 | 228 | 1.6 | 0.0 | 0.00 | 0.00 | 0.00 | 95 | 1001.1 |